Date String (YYYY-MM-DD hh:mm:ss) UTC,Instrument flags,absolute air pressure of the measurement (hPa),sample flow rate (lpm),inlet stack bypass flow (lpm),air temperature of the measurement (°C),ambient temperature measured by the external sensor (°C),aerosol sample conditioner tube jacket temperature (°C),OPC LED temperature (°C),internal box temperature (°C),relative humidity of the measurement (%),span deviation,mass concentration of particles derived from Lorenz-Mie calculation of OPC scattering (μg/m³),mass concentration of particles derived from Lorenz-Mie calculation of OPC scattering (μg/m³),mass concentration of particles derived from Lorenz-Mie calculation of OPC scattering (μg/m³)
DateTimeUTC,F1_M11,P_M11,Q1_M11,Q2_M11,T1_M11,T2_M11,T3_M11,T4_M11,T5_M11,U1_M11,ZSPAN_M11,X0_M11,X2_M11,X1_M11
2023-12-18 16:00:00,SystemResetWarning,0833.0,5.00,000.00,019.3,018.7,000.0,027.5,020.7,14.3,0000.0,0003.19,0001.63,0001.28
2023-12-18 16:01:00,SystemResetWarning,0833.5,5.00,000.00,019.3,018.7,000.0,027.5,020.7,14.8,0000.0,0003.31,0001.63,0001.30
2023-12-18 16:02:00,SystemResetWarning,0833.4,5.00,000.00,019.3,018.7,000.0,027.5,020.7,15.0,0000.0,0003.77,0001.66,0001.32
2023-12-18 16:03:00,SystemResetWarning,0833.1,5.00,000.00,019.4,018.7,000.0,027.5,020.7,14.9,0000.0,0004.77,0001.72,0001.35
2023-12-18 16:04:00,SystemResetWarning,0833.0,5.00,000.00,019.4,018.8,000.0,027.5,020.7,14.3,0000.0,0005.69,0001.73,0001.36
2023-12-18 16:05:00,SystemResetWarning,0832.9,5.00,000.00,019.4,018.8,000.0,027.6,020.7,14.3,0000.0,0005.71,0001.77,0001.39
2023-12-18 16:06:00,SystemResetWarning,0832.9,5.00,000.00,019.4,018.8,000.0,027.6,020.8,14.4,0000.0,0005.58,0001.79,0001.44
2023-12-18 16:07:00,SystemResetWarning,0833.0,4.98,000.00,019.4,018.8,000.0,027.6,020.8,14.0,0000.0,0005.59,0001.81,0001.48
2023-12-18 16:08:00,SystemResetWarning,0833.0,5.00,000.00,019.4,018.9,000.0,027.6,020.8,13.3,0000.0,0005.56,0001.82,0001.50
2023-12-18 16:09:00,SystemResetWarning,0833.0,5.01,000.00,019.5,018.9,000.0,027.6,020.8,13.1,0000.0,0005.40,0001.81,0001.53
2023-12-18 16:10:00,SystemResetWarning,0832.9,5.01,000.00,019.5,018.9,000.0,027.6,020.9,12.8,0000.0,0005.50,0001.86,0001.55
2023-12-18 16:11:00,SystemResetWarning,0833.2,4.99,000.00,019.5,018.9,000.0,027.6,020.8,12.5,0000.0,0006.37,0001.92,0001.56
2023-12-18 16:12:00,SystemResetWarning,0833.2,4.98,000.00,019.5,018.9,000.0,027.7,020.9,12.6,0000.0,0005.94,0001.93,0001.55
2023-12-18 16:13:00,SystemResetWarning,0833.3,5.00,000.00,019.5,019.0,000.0,027.7,020.9,12.9,0000.0,0006.06,0001.92,0001.55
2023-12-18 16:14:00,SystemResetWarning,0833.2,5.01,000.00,019.5,019.0,000.0,027.7,020.9,12.7,0000.0,0006.36,0001.92,0001.55
2023-12-18 16:15:00,SystemResetWarning,0833.1,5.01,000.00,019.6,019.0,000.0,027.7,020.9,12.9,0000.0,0006.71,0001.95,0001.55
2023-12-18 16:16:00,SystemResetWarning,0833.0,4.99,000.00,019.6,019.0,000.0,027.7,020.9,12.8,0000.0,0006.99,0001.96,0001.54
2023-12-18 16:17:00,SystemResetWarning,0833.0,4.99,000.00,019.6,019.0,000.0,027.7,021.0,12.6,0000.0,0007.12,0001.94,0001.52
2023-12-18 16:18:00,SystemResetWarning,0833.0,4.99,000.00,019.6,019.0,000.0,027.8,021.0,12.6,0000.0,0007.16,0001.94,0001.50
2023-12-18 16:19:00,SystemResetWarning,0833.0,5.01,000.00,019.6,019.1,000.0,027.8,021.0,12.6,0000.0,0007.64,0001.96,0001.50
2023-12-18 16:20:00,SystemResetWarning,0833.4,5.01,000.00,019.6,019.1,000.0,027.8,021.0,12.4,0000.0,0007.90,0002.00,0001.49
2023-12-18 16:21:00,SystemResetWarning,0833.3,5.00,000.00,019.7,019.1,000.0,027.8,021.0,12.8,0000.0,0008.00,0002.02,0001.48
2023-12-18 16:22:00,SystemResetWarning,0833.4,5.00,000.00,019.7,019.1,000.0,027.8,021.1,13.0,0000.0,0007.79,0001.97,0001.47
2023-12-18 16:23:00,SystemResetWarning,0833.0,5.00,000.00,019.7,019.1,000.0,027.8,021.0,13.2,0000.0,0008.16,0001.94,0001.47
2023-12-18 16:24:00,SystemResetWarning,0833.0,5.00,000.00,019.7,019.1,000.0,027.8,021.1,13.1,0000.0,0007.92,0001.94,0001.47
2023-12-18 16:25:00,SystemResetWarning,0833.1,5.00,000.00,019.7,019.2,000.0,027.9,021.1,13.2,0000.0,0007.32,0001.91,0001.47
2023-12-18 16:26:00,SystemResetWarning,0833.0,5.00,000.00,019.7,019.2,000.0,027.9,021.1,13.1,0000.0,0006.45,0001.89,0001.48
2023-12-18 16:27:00,SystemResetWarning,0833.2,5.00,000.00,019.8,019.2,000.0,027.9,021.1,12.8,0000.0,0006.43,0001.88,0001.49
2023-12-18 16:28:00,SystemResetWarning,0832.9,5.00,000.00,019.8,019.2,000.0,027.9,021.1,12.7,0000.0,0007.05,0001.89,0001.50
2023-12-18 16:29:00,SystemResetWarning,0833.0,5.00,000.00,019.8,019.2,000.0,027.9,021.2,12.6,0000.0,0007.10,0001.88,0001.49
2023-12-18 16:30:00,SystemResetWarning,0833.0,5.00,000.00,019.8,019.3,000.0,027.9,021.2,12.7,0000.0,0006.40,0001.86,0001.50
2023-12-18 16:31:00,SystemResetWarning,0832.9,5.01,000.00,019.8,019.3,000.0,028.0,021.2,12.6,0000.0,0006.01,0001.79,0001.49
2023-12-18 16:32:00,SystemResetWarning,0832.9,5.00,000.00,019.9,019.3,000.0,028.0,021.2,12.5,0000.0,0006.28,0001.75,0001.49
2023-12-18 16:33:00,SystemResetWarning,0833.1,5.00,000.00,019.9,019.3,000.0,028.0,021.3,12.7,0000.0,0005.69,0001.74,0001.50
2023-12-18 16:34:00,SystemResetWarning,0833.1,5.00,000.00,019.9,019.3,000.0,028.0,021.3,12.6,0000.0,0005.01,0001.75,0001.50
2023-12-18 16:35:00,SystemResetWarning,0833.0,5.00,000.00,019.9,019.3,000.0,028.0,021.3,12.4,0000.0,0005.24,0001.80,0001.50
2023-12-18 16:36:00,SystemResetWarning,0833.0,5.00,000.00,019.9,019.3,000.0,028.0,021.3,12.7,0000.0,0005.00,0001.80,0001.51
2023-12-18 16:37:00,SystemResetWarning,0832.9,5.00,000.00,019.9,019.4,000.0,028.1,021.3,12.6,0000.0,0004.81,0001.80,0001.51
2023-12-18 16:38:00,SystemResetWarning,0832.9,5.01,000.00,019.9,019.4,000.0,028.1,021.3,13.0,0000.0,0005.65,0001.79,0001.51
2023-12-18 16:39:00,SystemResetWarning,0833.1,5.00,000.00,020.0,019.4,000.0,028.1,021.3,13.0,0000.0,0004.86,0001.81,0001.51
2023-12-18 16:40:00,SystemResetWarning,0833.5,5.00,000.00,020.0,019.4,000.0,028.1,021.4,12.5,0000.0,0004.85,0001.84,0001.51
2023-12-18 16:41:00,SystemResetWarning,0833.4,5.00,000.00,020.0,019.4,000.0,028.1,021.4,12.4,0000.0,0004.81,0001.83,0001.50
2023-12-18 16:42:00,SystemResetWarning,0833.1,5.00,000.00,020.0,019.4,000.0,028.1,021.4,12.6,0000.0,0004.73,0001.85,0001.50
2023-12-18 16:43:00,SystemResetWarning,0832.9,5.00,000.00,020.0,019.4,000.0,028.2,021.4,12.4,0000.0,0004.08,0001.83,0001.51
2023-12-18 16:44:00,SystemResetWarning,0833.0,5.00,000.00,020.0,019.4,000.0,028.2,021.4,12.6,0000.0,0004.22,0001.86,0001.51
2023-12-18 16:45:00,SystemResetWarning,0833.0,5.00,000.00,020.1,019.4,000.0,028.2,021.4,12.8,0000.0,0004.85,0001.90,0001.52
2023-12-18 16:46:00,SystemResetWarning,0832.9,5.00,000.00,020.1,019.4,000.0,028.2,021.4,12.9,0000.0,0004.95,0001.85,0001.52
2023-12-18 16:47:00,SystemResetWarning,0833.1,5.00,000.00,020.1,019.4,000.0,028.2,021.5,12.9,0000.0,0005.03,0001.86,0001.51
2023-12-18 16:48:00,SystemResetWarning,0833.3,5.00,000.00,020.1,019.4,000.0,028.2,021.5,13.0,0000.0,0005.11,0001.85,0001.51
2023-12-18 16:49:00,SystemResetWarning,0833.1,5.00,000.00,020.1,019.4,000.0,028.2,021.5,13.1,0000.0,0004.06,0001.85,0001.51
2023-12-18 16:50:00,SystemResetWarning,0832.9,5.00,000.00,020.1,019.4,000.0,028.2,021.5,13.2,0000.0,0004.07,0001.85,0001.51
2023-12-18 16:51:00,SystemResetWarning,0832.9,5.01,000.00,020.1,019.5,000.0,028.3,021.5,13.2,0000.0,0004.06,0001.84,0001.52
2023-12-18 16:52:00,SystemResetWarning,0833.0,5.01,000.00,020.1,019.5,000.0,028.3,021.5,13.3,0000.0,0004.05,0001.84,0001.52
2023-12-18 16:53:00,SystemResetWarning,0832.9,5.00,000.00,020.2,019.5,000.0,028.3,021.5,13.4,0000.0,0004.22,0001.86,0001.52
2023-12-18 16:54:00,SystemResetWarning,0832.8,5.00,000.00,020.2,019.5,000.0,028.3,021.5,13.4,0000.0,0004.91,0001.90,0001.52
2023-12-18 16:55:00,SystemResetWarning,0832.7,5.00,000.00,020.2,019.5,000.0,028.3,021.5,13.4,0000.0,0004.80,0001.89,0001.53
2023-12-18 16:56:00,SystemResetWarning,0832.7,4.99,000.00,020.2,019.5,000.0,028.3,021.6,13.4,0000.0,0004.16,0001.88,0001.53
2023-12-18 16:57:00,SystemResetWarning,0832.8,5.00,000.00,020.2,019.5,000.0,028.3,021.5,13.4,0000.0,0003.86,0001.93,0001.54
2023-12-18 16:58:00,SystemResetWarning,0832.8,5.00,000.00,020.2,019.5,000.0,028.4,021.6,13.3,0000.0,0003.76,0001.90,0001.55
2023-12-18 16:59:00,SystemResetWarning,0832.8,5.00,000.00,020.2,019.6,000.0,028.4,021.6,13.2,0000.0,0003.63,0001.94,0001.56
